[[{"header":{"parameterUnit":"m.s-1","parameterCategory":1,"la1":30.2991,"la2":30.254,"lo1":-89.0895,"lo2":-89.0444,"dy":0.0017,"dx":0.0017,"nx":28,"ny":28,"refTime":"2024-03-24T21:00:00:Z","depth":0,"parameterNumber":2,"parameterNumberName":"U-component_of_WINDS"},"data":[0,0,0,0,0,0,0,0,0,0,0,0,0,0,0,0,0,0,0,0,0,0,0,0,0,0,0,0,0,0,0,0,0,0,0,0,0,0,0,0,0,0,0,0,0,0,0,0,0,0,0,0,0,0,0,0,0,0,-5.4316,-5.4316,0,-5.4367,-5.4368,-5.4368,-5.4309,-5.4307,-5.4305,-5.4303,-5.4353,-5.4357,-5.436,0,0,0,0,0,0,0,0,0,0,0,0,0,-5.4166,-5.4169,-5.4316,-5.4316,-5.4317,-5.4367,-5.4368,-5.4368,-5.431,-5.4307,-5.4304,-5.4302,-5.4352,-5.4356,-5.436,0,0,0,0,0,0,0,0,0,0,0,0,0,-5.4226,-5.417,-5.4316,-5.4294,-5.4292,-5.4367,-5.4368,-5.4369,-5.431,-5.4307,-5.4304,-5.4301,-5.4351,-5.4356,-5.4361,-5.4459,0,0,-5.4376,-5.4379,0,0,0,0,0,0,0,0,-5.4222,-5.4231,-5.4296,-5.4296,-5.4294,-5.4328,-5.4333,-5.4399,-5.4311,-5.4303,-5.4303,-5.4299,-5.4348,-5.4353,-5.437,-5.4461,-5.4463,-5.4377,-5.438,-5.4382,-5.4384,0,0,0,0,0,0,0,-5.4218,-5.4229,-5.4336,-5.4298,-5.4296,-5.4281,-5.4286,-5.4346,-5.4343,-5.4304,-5.43,-5.4307,-5.4346,-5.4365,-5.437,-5.4464,-5.4377,-5.4381,-5.4384,-5.4386,-5.4638,-5.4641,0,0,0,0,0,0,-5.4217,-5.4226,-5.4334,-5.4338,-5.4249,-5.4287,-5.4292,-5.4321,-5.4343,-5.4343,-5.4309,-5.4304,-5.4358,-5.4364,-5.4372,-5.4486,-5.4382,-5.4387,-5.439,-5.4634,-5.4638,-5.4642,0,0,0,0,0,0,-5.4214,-5.4227,-5.4332,-5.4281,-5.4293,-5.4293,-5.4326,-5.4324,-5.4342,-5.4347,-5.4346,-5.4329,-5.4355,-5.4365,-5.4437,-5.4487,-5.4389,-5.4394,-5.463,-5.4635,-5.464,-5.4717,0,0,0,0,0,0,-5.421,-5.4227,-5.4264,-5.4282,-5.4296,-5.4397,-5.4329,-5.4327,-5.4351,-5.4344,-5.4365,-5.4365,-5.4353,-5.443,-5.4443,-5.4493,-5.4398,-5.4625,-5.4632,-5.4639,-5.471,-5.4725,-5.4737,0,0,0,0,0,-5.4205,-5.4283,-5.4266,-5.4279,-5.4342,-5.44,-5.4408,-5.4394,-5.4355,-5.4392,-5.4396,-5.4364,-5.4481,-5.4438,-5.4452,-5.4504,-5.4622,-5.463,-5.4638,-5.4704,-5.4722,-5.4737,0,0,0,0,0,0,-5.4269,-5.4285,-5.4266,-5.4352,-5.4376,-5.439,-5.4436,-5.4413,-5.4447,-5.4439,-5.442,-5.4425,-5.4502,-5.4511,-5.4463,-5.46,-5.4545,-5.4556,-5.4591,-5.4607,-5.4621,-5.4615,-5.4402,0,0,0,0,0,-5.4294,-5.434,-5.4351,-5.4426,-5.4439,-5.4437,-5.4461,-5.4449,-5.4471,-5.4481,-5.4489,-5.4512,-5.4554,-5.4582,-5.4621,-5.4713,-5.4716,-5.4756,-5.4769,-5.478,-5.4789,-5.4837,-5.4855,-5.4669,-5.4669,-5.4669,0,0,-5.4344,-5.4359,-5.4389,-5.444,-5.4456,-5.4504,-5.4445,-5.4498,-5.4533,-5.4488,-5.4557,-5.4565,-5.459,-5.4672,-5.4709,-5.4682,-5.4842,-5.479,-5.4799,-5.4802,-5.4848,-5.4865,-5.4881,-5.4675,-5.4674,-5.4673,0,0,-5.446,-5.4477,-5.454,-5.4559,-5.4585,-5.4583,-5.4599,-5.4618,-5.4621,-5.4691,-5.4658,-5.47,-5.4773,-5.4791,-5.481,-5.4936,-5.4908,-5.495,-5.5018,-5.5066,-5.508,-5.5093,-5.5136,-5.5152,-5.4959,-5.4959,-5.496,0,-5.4519,-5.459,-5.4576,-5.4632,-5.4655,-5.4619,-5.4683,-5.4702,-5.4739,-5.4756,-5.4725,-5.4816,-5.483,-5.4916,-5.4947,-5.4964,-5.4981,-5.4945,-5.508,-5.5092,-5.5104,-5.5145,-5.5161,-5.4964,-5.4964,-5.4963,-5.4963,0,-5.4661,-5.4711,-5.476,-5.4797,-5.4826,-5.4886,-5.4881,-5.4912,-5.4898,-5.4899,-5.497,-5.4987,-5.5028,-5.5048,-5.5034,-5.5133,-5.5115,-5.5083,-5.5026,-5.5127,-5.5164,-5.518,-5.4971,-5.4969,-5.4968,-5.4967,0,0,-5.4815,-5.4846,-5.4864,-5.4881,-5.4908,-5.4946,-5.5005,-5.5046,-5.5073,-5.5101,-5.5149,-5.5212,-5.5183,-5.5205,-5.5193,-5.5236,-5.5332,-5.5198,-5.5198,-5.522,-5.544,-5.5462,-5.548,-5.5316,-5.5319,-5.5321,-5.5437,0,-5.493,-5.5031,-5.5021,-5.5117,-5.5163,-5.5131,-5.5182,-5.5204,-5.5208,-5.5247,-5.525,-5.5295,-5.5254,-5.5267,-5.5307,-5.5312,-5.5376,-5.5304,-5.5358,-5.536,-5.5349,-5.55,-5.5523,-5.5632,-5.5452,-5.5455,-5.5456,0,-5.5076,-5.511,-5.5211,-5.5232,-5.525,-5.5296,-5.5333,-5.5372,-5.5397,-5.5397,-5.5422,-5.5404,-5.5463,-5.5408,-5.5488,-5.544,-5.5462,-5.5468,-5.5472,-5.5473,-5.5412,-5.5503,-5.5666,-5.5682,-5.548,-5.5478,-5.5476,0,-5.5175,-5.5247,-5.5316,-5.5332,-5.5359,-5.5392,-5.5404,-5.5426,-5.5452,-5.5485,-5.5501,-5.5541,-5.5562,-5.5593,-5.5585,-5.5547,-5.5667,-5.5612,-5.5666,-5.5667,-5.569,-5.5688,-5.5856,-5.571,-5.571,-5.5709,-5.5709,0,-5.5303,-5.5365,-5.5361,-5.5403,-5.5472,-5.5461,-5.553,-5.5539,-5.5559,-5.5602,-5.5578,-5.5619,-5.5608,-5.5649,-5.5644,-5.571,-5.5721,-5.5721,-5.5718,-5.5721,-5.5721,-5.5733,-5.5724,-5.5714,-5.5713,-5.5712,-5.5711,0,-5.5424,-5.5424,-5.5497,-5.5518,-5.5524,-5.5574,-5.5591,-5.5631,-5.5634,-5.5689,-5.5701,-5.5705,-5.5752,-5.5749,-5.5802,-5.5798,-5.5879,-5.5869,-5.5871,-5.5867,-5.5921,-5.5915,-5.61,-5.6123,-5.5965,-5.5966,-5.5968,0,-5.5503,-5.5551,-5.5577,-5.5604,-5.5619,-5.5664,-5.569,-5.5682,-5.5711,-5.5744,-5.5779,-5.5824,-5.5859,-5.5935,-5.5942,-5.5983,-5.5972,-5.6034,-5.5977,-5.5979,-5.597,-5.5966,-5.597,-5.6044,-5.6046,-5.6047,-5.6048,0,-5.5644,-5.5642,-5.5681,-5.5721,-5.5754,-5.5784,-5.5812,-5.5836,-5.5831,-5.5865,-5.5912,-5.594,-5.5994,-5.6039,-5.6077,-5.609,-5.6068,-5.6067,-5.6081,-5.6083,-5.6081,-5.608,-5.5898,-5.6062,-5.606,-5.6059,-5.6059,-5.6058,-5.5745,-5.5785,-5.581,-5.5854,-5.5875,-5.5903,-5.5941,-5.5949,-5.5989,-5.6033,-5.6026,-5.608,-5.6104,-5.6154,-5.6171,-5.6212,-5.619,-5.6211,-5.6216,-5.622,-5.6225,-5.6077,-5.622,-5.6219,-5.6219,-5.6219,-5.6218,0,-5.5882,-5.5897,-5.5938,-5.5979,-5.6014,-5.5993,-5.6023,-5.6054,-5.6101,-5.6127,-5.6162,-5.6217,-5.6261,-5.6272,-5.6314,-5.6345,-5.6336,-5.6356,-5.6352,-5.6355,-5.6244,-5.6226,-5.6362,-5.6362,-5.6362,-5.6362,-5.6362,-5.6362,-5.5957,-5.6024,-5.6025,-5.6102,-5.6117,-5.6169,-5.6188,-5.6213,-5.6233,-5.6296,-5.6332,-5.634,-5.636,-5.6403,-5.6442,-5.6445,-5.646,-5.6483,-5.6482,-5.6377,-5.6363,-5.6349,-5.6332,-5.6488,-5.6488,-5.6588,-5.6589,-5.659]},{"header":{"parameterUnit":"m.s-1","parameterCategory":1,"la1":30.2991,"la2":30.254,"lo1":-89.0895,"lo2":-89.0444,"dy":0.0017,"dx":0.0017,"nx":28,"ny":28,"refTime":"2024-03-24T21:00:00:Z","depth":0,"parameterNumber":3,"parameterNumberName":"V-component_of_WINDS"},"data":[0,0,0,0,0,0,0,0,0,0,0,0,0,0,0,0,0,0,0,0,0,0,0,0,0,0,0,0,0,0,0,0,0,0,0,0,0,0,0,0,0,0,0,0,0,0,0,0,0,0,0,0,0,0,0,0,0,0,3.3345,3.3345,0,3.3398,3.3398,3.3399,3.339,3.3389,3.3388,3.3387,3.344,3.3442,3.3445,0,0,0,0,0,0,0,0,0,0,0,0,0,3.3235,3.3237,3.3345,3.3345,3.3346,3.3398,3.3398,3.3399,3.339,3.3389,3.3388,3.3387,3.344,3.3442,3.3445,0,0,0,0,0,0,0,0,0,0,0,0,0,3.3285,3.3238,3.3344,3.3348,3.3348,3.3397,3.3398,3.3399,3.339,3.3389,3.3387,3.3386,3.3439,3.3442,3.3445,3.3494,0,0,3.3456,3.3457,0,0,0,0,0,0,0,0,3.3282,3.3289,3.3346,3.3347,3.3348,3.3386,3.3379,3.3431,3.3391,3.3374,3.3387,3.3385,3.3423,3.3428,3.3441,3.3497,3.3499,3.3456,3.3458,3.346,3.3461,0,0,0,0,0,0,0,3.3279,3.3287,3.3366,3.3347,3.3349,3.3346,3.3352,3.3389,3.3406,3.3376,3.3375,3.3382,3.3423,3.3437,3.3442,3.35,3.3456,3.3459,3.3461,3.3462,3.36,3.3602,0,0,0,0,0,0,3.3274,3.3284,3.3364,3.3367,3.3311,3.3349,3.3356,3.3375,3.3405,3.3409,3.3383,3.3381,3.3432,3.3438,3.3444,3.3505,3.346,3.3463,3.3465,3.3599,3.3601,3.3603,0,0,0,0,0,0,3.3272,3.3281,3.3362,3.3325,3.3335,3.3353,3.3375,3.3377,3.3391,3.3411,3.3414,3.3394,3.3431,3.3439,3.3482,3.3506,3.3464,3.3467,3.3597,3.3599,3.3602,3.3626,0,0,0,0,0,0,3.3269,3.3281,3.3299,3.3326,3.3337,3.34,3.3376,3.3379,3.3397,3.3395,3.3422,3.3425,3.3431,3.3477,3.3486,3.351,3.347,3.3595,3.3598,3.3601,3.3623,3.3629,3.3634,0,0,0,0,0,3.3265,3.3304,3.33,3.331,3.3361,3.3401,3.3408,3.3414,3.3399,3.3418,3.3431,3.3424,3.3502,3.3482,3.3491,3.3517,3.3593,3.3597,3.3601,3.3621,3.3628,3.3634,0,0,0,0,0,0,3.3279,3.3307,3.3304,3.3352,3.3374,3.3399,3.3424,3.3421,3.3447,3.3444,3.345,3.3456,3.3501,3.3513,3.349,3.3567,3.3546,3.3551,3.3558,3.3564,3.357,3.3566,3.3473,0,0,0,0,0,3.3288,3.3318,3.334,3.3381,3.3392,3.3406,3.3424,3.3426,3.3449,3.3459,3.3475,3.3497,3.3527,3.3546,3.3574,3.3624,3.3631,3.3647,3.3652,3.3656,3.3662,3.3691,3.3699,3.3614,3.3614,3.3614,0,0,3.3306,3.3325,3.3343,3.3384,3.3402,3.3433,3.3414,3.3447,3.3471,3.3463,3.3506,3.3519,3.3544,3.3592,3.3613,3.3603,3.3686,3.3661,3.3664,3.3667,3.3695,3.3703,3.371,3.3617,3.3616,3.3616,0,0,3.3356,3.3373,3.3409,3.3427,3.3454,3.3463,3.3472,3.3498,3.3506,3.3549,3.3545,3.3572,3.3623,3.3642,3.3658,3.3716,3.3711,3.3725,3.3753,3.3782,3.3788,3.3794,3.3816,3.3824,3.373,3.373,3.373,0,3.3375,3.3422,3.3428,3.3463,3.3481,3.3477,3.3514,3.3531,3.3566,3.3579,3.3567,3.3631,3.3648,3.3701,3.3715,3.3727,3.3738,3.3722,3.3787,3.3793,3.3798,3.382,3.3828,3.3731,3.3731,3.3731,3.3731,0,3.3446,3.3479,3.3505,3.354,3.3561,3.3596,3.3608,3.3629,3.363,3.364,3.3684,3.3704,3.3737,3.3749,3.375,3.3803,3.3796,3.3785,3.3764,3.3808,3.3828,3.3836,3.3734,3.3733,3.3732,3.3732,0,0,3.3507,3.3544,3.3554,3.3571,3.36,3.3626,3.3661,3.3694,3.3713,3.3737,3.3768,3.3811,3.3802,3.382,3.3823,3.3848,3.3894,3.3834,3.3835,3.3846,3.3955,3.3964,3.3973,3.3891,3.3892,3.3894,3.3954,0,3.3561,3.3624,3.3631,3.3688,3.3719,3.3715,3.3747,3.3768,3.3779,3.3807,3.3819,3.385,3.3835,3.3846,3.387,3.3884,3.3917,3.3879,3.3921,3.3922,3.3916,3.3984,3.3993,3.4049,3.3961,3.3963,3.3964,0,3.3632,3.366,3.372,3.3747,3.376,3.3788,3.382,3.3846,3.3871,3.3877,3.3898,3.3898,3.3935,3.3912,3.3964,3.3939,3.3956,3.3965,3.3967,3.3972,3.3947,3.3992,3.4066,3.4075,3.3976,3.3975,3.3974,0,3.3673,3.3725,3.3768,3.3782,3.3814,3.3834,3.3848,3.3871,3.3891,3.3918,3.3931,3.3962,3.3979,3.4003,3.4011,3.3993,3.4063,3.404,3.407,3.407,3.4086,3.4086,3.4166,3.4095,3.4095,3.4094,3.4094,0,3.3734,3.3772,3.3787,3.3814,3.3856,3.3863,3.3905,3.3918,3.3939,3.3968,3.3966,3.3994,3.4002,3.4032,3.4038,3.4081,3.4088,3.4095,3.4096,3.4096,3.4096,3.4109,3.4106,3.4097,3.4096,3.4096,3.4095,0,3.3787,3.3799,3.3846,3.3872,3.388,3.391,3.3933,3.3959,3.3969,3.4007,3.4016,3.4032,3.4067,3.4077,3.4118,3.4123,3.4173,3.4171,3.4166,3.4166,3.4196,3.4194,3.4289,3.4302,3.4221,3.4222,3.4222,0,3.3826,3.3855,3.3885,3.3905,3.392,3.3952,3.3972,3.398,3.4001,3.4032,3.4055,3.4089,3.4117,3.4173,3.4188,3.422,3.4219,3.425,3.4223,3.4223,3.4221,3.422,3.4224,3.4255,3.4256,3.4257,3.4257,0,3.3895,3.3899,3.3929,3.3961,3.3986,3.4011,3.4036,3.4052,3.4063,3.4088,3.4123,3.4145,3.4188,3.4222,3.4254,3.4269,3.4266,3.4265,3.4274,3.4275,3.4272,3.4276,3.4181,3.4263,3.4263,3.4262,3.4262,3.4262,3.3943,3.397,3.3995,3.4029,3.4048,3.4071,3.4098,3.4112,3.4142,3.4177,3.418,3.4219,3.4243,3.4287,3.4303,3.4333,3.4324,3.4337,3.434,3.4344,3.4347,3.4265,3.4339,3.4339,3.4339,3.4339,3.4338,0,3.4014,3.403,3.4061,3.4096,3.4122,3.4116,3.4143,3.4166,3.4201,3.4224,3.4252,3.4293,3.4327,3.4345,3.4378,3.44,3.4399,3.4408,3.4408,3.4411,3.4352,3.4342,3.4408,3.4408,3.4408,3.4408,3.4408,3.4408,3.4054,3.4098,3.4106,3.416,3.4176,3.4215,3.4231,3.4253,3.4272,3.4318,3.4346,3.4358,3.438,3.4415,3.4445,3.445,3.4463,3.4474,3.4477,3.4422,3.4415,3.4409,3.4399,3.4476,3.4476,3.4534,3.4535,3.4535]}]]